Weather History for KTVF - January, 2014

Change the Weather History Date:

Sunday, January 26, 2014

  Actual Average (KGFK) Record (KGFK)
Temperature  
Mean Temperature -6 °F 7 °F  
Max Temperature 3 °F 17 °F 46 °F (1990)
Min Temperature -16 °F -3 °F -32 °F (1950)
Degree Days  
Heating Degree Days 72 58  
Month to date heating degree days 1521  
Since 1 July heating degree days 5380  
Cooling Degree Days 0 0  
Month to date cooling degree days 0  
Year to date cooling degree days 0  
Moisture  
Dew Point -10 °F    
Average Humidity 78    
Maximum Humidity 92    
Minimum Humidity 65    
Precipitation  
Precipitation 0.00 in 0.02 in 0.11 in (1958)
Month to date precipitation 0.47  
Year to date precipitation 0.47  
Snow  
Snow 0.00 in 0.30 in 1.40 in (1998)
Month to date snowfall 9.2  
Since 1 July snowfall 29.1  
Snow Depth -    
Sea Level Pressure  
Sea Level Pressure 29.68 in    
Wind  
Wind Speed 15 mph (NW)    
Max Wind Speed 31 mph    
Max Gust Speed 40 mph    
Visibility 4 miles    
Events      
T = Trace of Precipitation, MM = Missing Value Source: NWS Daily Summary

Daily Weather History Graph

Daily Weather History Graph

Search for Another Location

Airport or City:

Trip Planner

Search our weather history database for the weather conditions in past years. The results will help you decide how hot, cold, wet, or windy it might be!

Date:

Astronomy

Jan. 26, 2014 Rise Set
Actual Time 7:59 AM CST 5:15 PM CST
Civil Twilight 7:25 AM CST 5:49 PM CST
Nautical Twilight 6:48 AM CST 6:27 PM CST
Astronomical Twilight 6:11 AM CST 7:03 PM CST
Moon 3:40 AM CST (1/26) 1:03 PM CST (1/26)
Length of Visible Light 10h 23m
Length of Day
9h 15m
Waning Crescent, 23% of the Moon is Illuminated
Jan 26
Waning Crescent
Jan 30
New
Feb 6
First Quarter
Feb 14
Full
Feb 22
Last Quarter

Hourly Weather History & Observations

Time (CST) Temp. Windchill Dew Point Humidity Pressure Visibility Wind Dir Wind Speed Gust Speed Precip Events Conditions
12:15 AM -0.4 °F -13.4 °F -4.0 °F 85% 29.45 in 5.0 mi East 6.9 mph - N/A   Unknown
12:35 AM -0.4 °F -10.4 °F -4.0 °F 85% 29.47 in 7.0 mi East 4.6 mph - N/A   Unknown
12:55 AM -0.4 °F -13.4 °F -4.0 °F 85% 29.45 in 10.0 mi East 6.9 mph - N/A   Unknown
1:15 AM -0.4 °F -13.4 °F -4.0 °F 85% 29.44 in 10.0 mi East 6.9 mph - N/A   Unknown
1:35 AM -0.4 °F -10.4 °F -4.0 °F 85% 29.44 in 10.0 mi ENE 4.6 mph - N/A   Unknown
1:55 AM -0.4 °F -10.4 °F -5.8 °F 78% 29.44 in 10.0 mi East 4.6 mph - N/A   Unknown
2:15 AM -0.4 °F -12.0 °F -4.0 °F 85% 29.43 in 10.0 mi East 5.8 mph - N/A   Unknown
2:35 AM -0.4 °F -8.3 °F -4.0 °F 85% 29.43 in 10.0 mi East 3.5 mph - N/A   Unknown
2:55 AM -0.4 °F -12.0 °F -5.8 °F 78% 29.41 in 10.0 mi ESE 5.8 mph - N/A   Unknown
3:15 AM -0.4 °F -10.4 °F -4.0 °F 85% 29.40 in 10.0 mi SE 4.6 mph - N/A   Unknown
3:35 AM 1.4 °F - -4.0 °F 78% 29.41 in 10.0 mi Calm Calm - N/A   Unknown
3:55 AM 1.4 °F -11.3 °F -5.8 °F 72% 29.41 in 7.0 mi WSW 6.9 mph - N/A   Unknown
4:15 AM 1.4 °F -8.3 °F -4.0 °F 78% 29.40 in 8.0 mi West 4.6 mph - N/A   Unknown
4:35 AM 1.4 °F -6.2 °F -4.0 °F 78% 29.39 in 9.0 mi West 3.5 mph - N/A   Unknown
4:55 AM 1.4 °F -6.2 °F -2.2 °F 85% 29.38 in 10.0 mi SW 3.5 mph - N/A   Unknown
5:15 AM 1.4 °F -9.9 °F -5.8 °F 72% 29.38 in 10.0 mi WSW 5.8 mph - N/A   Unknown
5:35 AM 1.4 °F -9.9 °F -2.2 °F 85% 29.37 in 10.0 mi WSW 5.8 mph - N/A   Unknown
5:55 AM 1.4 °F -13.5 °F -4.0 °F 78% 29.38 in 10.0 mi WSW 9.2 mph - N/A   Unknown
6:15 AM 1.4 °F -11.3 °F -2.2 °F 85% 29.36 in 10.0 mi West 6.9 mph - N/A   Unknown
6:35 AM 3.2 °F -15.3 °F -2.2 °F 78% 29.38 in 10.0 mi West 15.0 mph - N/A   Unknown
6:55 AM 3.2 °F -17.1 °F 1.4 °F 92% 29.39 in 9.0 mi WNW 18.4 mph 25.3 mph N/A   Unknown
7:15 AM 3.2 °F -16.5 °F -0.4 °F 85% 29.37 in 10.0 mi WNW 17.3 mph - N/A   Unknown
7:35 AM 3.2 °F -21.5 °F -0.4 °F 85% 29.37 in 3.0 mi NW 29.9 mph 34.5 mph N/A   Unknown
7:55 AM 1.4 °F -22.3 °F -5.8 °F 72% 29.38 in 2.5 mi NW 25.3 mph - N/A   Unknown
8:15 AM 1.4 °F -23.9 °F -4.0 °F 78% 29.40 in 0.5 mi NW 29.9 mph 35.7 mph N/A   Unknown
8:35 AM -0.4 °F -25.2 °F -5.8 °F 78% 29.39 in 0.5 mi NW 26.5 mph 38.0 mph N/A   Unknown
8:55 AM -0.4 °F -26.0 °F -5.8 °F 78% 29.41 in 0.8 mi NW 28.8 mph 35.7 mph N/A   Unknown
9:15 AM -0.4 °F -23.8 °F -7.6 °F 72% 29.42 in 1.5 mi NW 23.0 mph - N/A   Unknown
9:35 AM -0.4 °F -25.2 °F -7.6 °F 72% 29.44 in 1.0 mi NW 26.5 mph 29.9 mph N/A   Unknown
9:55 AM -2.2 °F -25.7 °F -7.6 °F 78% 29.47 in 2.0 mi NW 21.9 mph - N/A   Unknown
10:15 AM -2.2 °F -26.7 °F -7.6 °F 78% 29.48 in 1.2 mi NW 24.2 mph - N/A   Unknown
10:35 AM -2.2 °F -26.7 °F -5.8 °F 85% 29.49 in 1.0 mi NW 24.2 mph - N/A   Unknown
10:55 AM -2.2 °F -26.7 °F -7.6 °F 78% 29.51 in 1.2 mi NW 24.2 mph 32.2 mph N/A   Unknown
11:15 AM -2.2 °F -27.1 °F -7.6 °F 78% 29.53 in 1.0 mi NW 25.3 mph 31.1 mph N/A   Unknown
11:35 AM -2.2 °F -27.6 °F -7.6 °F 78% 29.55 in 0.8 mi NNW 26.5 mph 31.1 mph N/A   Unknown
11:55 AM -0.4 °F -24.7 °F -7.6 °F 72% 29.57 in 0.8 mi NNW 25.3 mph 31.1 mph N/A   Unknown
12:15 PM -0.4 °F -23.8 °F -5.8 °F 78% 29.59 in 0.8 mi NNW 23.0 mph - N/A   Unknown
12:35 PM -2.2 °F -27.6 °F -9.4 °F 71% 29.60 in 0.5 mi NNW 26.5 mph - N/A   Unknown
12:55 PM -0.4 °F -25.6 °F -5.8 °F 78% 29.62 in 0.5 mi NNW 27.6 mph 34.5 mph N/A   Unknown
1:15 PM - - - N/A% 29.64 in 0.2 mi NNW 29.9 mph 35.7 mph N/A   Unknown
1:35 PM -0.4 °F -25.2 °F -9.4 °F 66% 29.66 in 0.2 mi NNW 26.5 mph 38.0 mph N/A   Unknown
1:55 PM -0.4 °F -25.2 °F -7.6 °F 72% 29.68 in 0.2 mi NNW 26.5 mph - N/A   Unknown
2:15 PM -2.2 °F -28.0 °F -9.4 °F 71% 29.70 in 0.2 mi NNW 27.6 mph 35.7 mph N/A   Unknown
2:35 PM -2.2 °F -28.8 °F -7.6 °F 78% 29.72 in 0.5 mi NNW 29.9 mph 36.8 mph N/A   Unknown
2:55 PM - - - N/A% 29.75 in 0.5 mi NNW 21.9 mph 36.8 mph N/A   Unknown
3:15 PM -2.2 °F -28.8 °F -9.4 °F 71% 29.78 in 0.5 mi NNW 29.9 mph 35.7 mph N/A   Unknown
3:35 PM -2.2 °F -27.6 °F -11.2 °F 66% 29.80 in 0.5 mi NNW 26.5 mph 33.4 mph N/A   Unknown
3:55 PM -2.2 °F -25.7 °F -11.2 °F 66% 29.83 in 0.5 mi NNW 21.9 mph 32.2 mph N/A   Unknown
4:15 PM -2.2 °F -27.1 °F -9.4 °F 71% 29.86 in 0.5 mi NNW 25.3 mph 38.0 mph N/A   Unknown
4:35 PM -5.8 °F -34.1 °F -14.8 °F 65% 29.87 in 0.2 mi NW 31.1 mph 38.0 mph N/A   Unknown
4:55 PM -5.8 °F -33.3 °F -13.0 °F 71% 29.90 in 0.2 mi NW 28.8 mph 40.3 mph N/A   Unknown
5:15 PM -7.6 °F -35.7 °F -14.8 °F 71% 29.92 in 0.2 mi NW 28.8 mph 35.7 mph N/A   Unknown
5:35 PM -9.4 °F -38.2 °F -16.6 °F 71% 29.94 in 0.2 mi NW 28.8 mph 38.0 mph N/A   Unknown
5:55 PM -9.4 °F -37.3 °F -16.6 °F 71% 29.96 in 1.0 mi NW 26.5 mph 33.4 mph N/A   Unknown
6:15 PM -9.4 °F -38.2 °F -14.8 °F 77% 29.97 in 1.2 mi NW 28.8 mph 33.4 mph N/A   Unknown
6:35 PM -9.4 °F -37.3 °F -16.6 °F 71% 29.99 in 0.8 mi NW 26.5 mph - N/A   Unknown
6:55 PM -11.2 °F -39.7 °F -16.6 °F 77% 30.01 in 0.5 mi NW 26.5 mph 32.2 mph N/A   Unknown
7:15 PM -11.2 °F -38.7 °F -18.4 °F 70% 30.02 in 1.0 mi NW 24.2 mph 28.8 mph N/A   Unknown
7:35 PM -13.0 °F -41.6 °F -18.4 °F 77% 30.04 in 1.0 mi NW 25.3 mph - N/A   Unknown
7:55 PM -13.0 °F -41.6 °F -18.4 °F 77% 30.06 in 1.0 mi NW 25.3 mph - N/A   Unknown
8:15 PM -14.8 °F -42.4 °F -18.4 °F 84% 30.08 in 1.5 mi NW 21.9 mph 32.2 mph N/A   Unknown
8:35 PM -14.8 °F -42.9 °F -18.4 °F 84% 30.09 in 1.5 mi NW 23.0 mph - N/A   Unknown
8:55 PM -14.8 °F -42.9 °F -18.4 °F 84% 30.10 in 1.8 mi NW 23.0 mph - N/A   Unknown
9:15 PM -14.8 °F -41.8 °F -20.2 °F 77% 30.11 in 1.5 mi NW 20.7 mph - N/A   Unknown
9:35 PM -14.8 °F -41.2 °F -20.2 °F 77% 30.12 in 2.0 mi NW 19.6 mph - N/A   Unknown
9:55 PM -14.8 °F -41.8 °F -20.2 °F 77% 30.13 in 2.5 mi NW 20.7 mph - N/A   Unknown
10:15 PM -16.6 °F -42.9 °F -20.2 °F 84% 30.13 in 3.0 mi NW 18.4 mph - N/A   Unknown
10:35 PM -16.6 °F -41.4 °F -22.0 °F 76% 30.14 in 4.0 mi NW 16.1 mph - N/A   Unknown
10:55 PM -16.6 °F -41.4 °F -20.2 °F 84% 30.14 in 6.0 mi NW 16.1 mph - N/A   Unknown
11:15 PM -16.6 °F -41.4 °F -22.0 °F 76% 30.15 in 4.0 mi NW 16.1 mph - N/A   Unknown
11:35 PM -16.6 °F -42.1 °F -22.0 °F 76% 30.16 in 5.0 mi NW 17.3 mph - N/A   Unknown
11:55 PM -16.6 °F -41.4 °F -20.2 °F 84% 30.16 in 5.0 mi NW 16.1 mph - N/A   Unknown